owner,sensor,date,latitude,longitude,vertical_datum,sea_water_practical_salinity,qcFlag 
TABS,ioos:station:wmo:42043:1,2010-07-01T00:00:00Z,28.9818,-94.9186,2.0,24.51,11111222 
TABS,ioos:station:wmo:42043:1,2010-07-01T00:30:00Z,28.9818,-94.9186,2.0,24.23,11111222 
TABS,ioos:station:wmo:42043:1,2010-07-01T01:00:00Z,28.9818,-94.9186,2.0,24.11,11111222 
TABS,ioos:station:wmo:42043:1,2010-07-01T01:30:00Z,28.9818,-94.9186,2.0,23.85,11111222 
TABS,ioos:station:wmo:42043:1,2010-07-01T02:00:00Z,28.9818,-94.9186,2.0,23.74,11111222 
TABS,ioos:station:wmo:42043:1,2010-07-01T02:30:00Z,28.9818,-94.9186,2.0,23.55,11111222 
TABS,ioos:station:wmo:42043:1,2010-07-01T03:00:00Z,28.9818,-94.9186,2.0,23.43,11111222 
TABS,ioos:station:wmo:42043:1,2010-07-01T03:30:00Z,28.9818,-94.9186,2.0,23.52,11111222 
TABS,ioos:station:wmo:42043:1,2010-07-01T04:00:00Z,28.9818,-94.9186,2.0,23.52,11111222 
TABS,ioos:station:wmo:42043:1,2010-07-01T04:30:00Z,28.9818,-94.9186,2.0,23.51,11111222 
TABS,ioos:station:wmo:42043:1,2010-07-01T05:00:00Z,28.9818,-94.9186,2.0,23.43,11111222 
TABS,ioos:station:wmo:42043:1,2010-07-01T05:30:00Z,28.9818,-94.9186,2.0,23.46,11111222 
TABS,ioos:station:wmo:42043:1,2010-07-01T06:00:00Z,28.9818,-94.9186,2.0,23.45,11111222 
TABS,ioos:station:wmo:42043:1,2010-07-01T06:30:00Z,28.9818,-94.9186,2.0,23.47,11111222 
TABS,ioos:station:wmo:42043:1,2010-07-01T07:00:00Z,28.9818,-94.9186,2.0,23.5,11111222 
TABS,ioos:station:wmo:42043:1,2010-07-01T07:30:00Z,28.9818,-94.9186,2.0,23.5,11111222 
TABS,ioos:station:wmo:42043:1,2010-07-01T08:00:00Z,28.9818,-94.9186,2.0,23.47,11111222 
TABS,ioos:station:wmo:42043:1,2010-07-01T08:30:00Z,28.9818,-94.9186,2.0,23.3,11111222 
TABS,ioos:station:wmo:42043:1,2010-07-01T09:00:00Z,28.9818,-94.9186,2.0,23.17,11111222 
TABS,ioos:station:wmo:42043:1,2010-07-01T09:30:00Z,28.9818,-94.9186,2.0,22.97,11111222 
TABS,ioos:station:wmo:42043:1,2010-07-01T10:00:00Z,28.9818,-94.9186,2.0,22.81,11111222 
TABS,ioos:station:wmo:42043:1,2010-07-01T10:30:00Z,28.9818,-94.9186,2.0,21.73,11111222 
TABS,ioos:station:wmo:42043:1,2010-07-01T11:00:00Z,28.9818,-94.9186,2.0,21.03,11111222 
TABS,ioos:station:wmo:42043:1,2010-07-01T11:30:00Z,28.9818,-94.9186,2.0,20.53,11111222 
TABS,ioos:station:wmo:42043:1,2010-07-01T12:00:00Z,28.9818,-94.9186,2.0,20.51,11111222 
TABS,ioos:station:wmo:42043:1,2010-07-01T12:30:00Z,28.9818,-94.9186,2.0,20.12,11111222 
TABS,ioos:station:wmo:42043:1,2010-07-01T13:00:00Z,28.9818,-94.9186,2.0,20.19,11111222 
TABS,ioos:station:wmo:42043:1,2010-07-01T13:30:00Z,28.9818,-94.9186,2.0,20.32,11111222 
TABS,ioos:station:wmo:42043:1,2010-07-01T14:00:00Z,28.9818,-94.9186,2.0,20.57,11111222 
TABS,ioos:station:wmo:42043:1,2010-07-01T14:30:00Z,28.9818,-94.9186,2.0,20.93,11111222 
TABS,ioos:station:wmo:42043:1,2010-07-01T15:00:00Z,28.9818,-94.9186,2.0,21.4,11111222 
TABS,ioos:station:wmo:42043:1,2010-07-01T15:30:00Z,28.9818,-94.9186,2.0,21.5,11111222 
TABS,ioos:station:wmo:42043:1,2010-07-01T16:00:00Z,28.9818,-94.9186,2.0,21.6,11111222 
TABS,ioos:station:wmo:42043:1,2010-07-01T16:30:00Z,28.9818,-94.9186,2.0,21.6,11111222 
TABS,ioos:station:wmo:42043:1,2010-07-01T17:00:00Z,28.9818,-94.9186,2.0,21.8,11111222 
TABS,ioos:station:wmo:42043:1,2010-07-01T17:30:00Z,28.9818,-94.9186,2.0,21.9,11111222 
TABS,ioos:station:wmo:42043:1,2010-07-01T18:00:00Z,28.9818,-94.9186,2.0,22.1,11111222 
TABS,ioos:station:wmo:42043:1,2010-07-01T18:30:00Z,28.9818,-94.9186,2.0,22.6,11111222 
TABS,ioos:station:wmo:42043:1,2010-07-01T19:00:00Z,28.9818,-94.9186,2.0,23.1,11111222 
TABS,ioos:station:wmo:42043:1,2010-07-01T19:30:00Z,28.9818,-94.9186,2.0,23.1,11111222 
TABS,ioos:station:wmo:42043:1,2010-07-01T20:00:00Z,28.9818,-94.9186,2.0,23.6,11111222 
TABS,ioos:station:wmo:42043:1,2010-07-01T20:30:00Z,28.9818,-94.9186,2.0,23.6,11111222 
TABS,ioos:station:wmo:42043:1,2010-07-01T21:00:00Z,28.9818,-94.9186,2.0,23.6,11111222 
TABS,ioos:station:wmo:42043:1,2010-07-01T21:30:00Z,28.9818,-94.9186,2.0,23.5,11111222 
TABS,ioos:station:wmo:42043:1,2010-07-01T22:00:00Z,28.9818,-94.9186,2.0,23.5,11111222 
TABS,ioos:station:wmo:42043:1,2010-07-01T22:30:00Z,28.9818,-94.9186,2.0,23.5,11111222 
TABS,ioos:station:wmo:42043:1,2010-07-01T23:00:00Z,28.9818,-94.9186,2.0,23.5,11111222 
TABS,ioos:station:wmo:42043:1,2010-07-01T23:30:00Z,28.9818,-94.9186,2.0,23.6,11111222 
TABS,ioos:station:wmo:42043:1,2010-07-02T00:00:00Z,28.9818,-94.9186,2.0,23.6,11111222 
TABS,ioos:station:wmo:42043:1,2010-07-02T00:30:00Z,28.9818,-94.9186,2.0,23.6,11111222 
TABS,ioos:station:wmo:42043:1,2010-07-02T01:00:00Z,28.9818,-94.9186,2.0,23.49,11111222 
TABS,ioos:station:wmo:42043:1,2010-07-02T01:30:00Z,28.9818,-94.9186,2.0,23.57,11111222 
TABS,ioos:station:wmo:42043:1,2010-07-02T02:00:00Z,28.9818,-94.9186,2.0,22.34,11111222 
TABS,ioos:station:wmo:42043:1,2010-07-02T02:30:00Z,28.9818,-94.9186,2.0,22.34,11111222 
TABS,ioos:station:wmo:42043:1,2010-07-02T03:00:00Z,28.9818,-94.9186,2.0,22.31,11111222 
TABS,ioos:station:wmo:42043:1,2010-07-02T03:30:00Z,28.9818,-94.9186,2.0,22.34,11111222 
TABS,ioos:station:wmo:42043:1,2010-07-02T04:00:00Z,28.9818,-94.9186,2.0,22.41,11111222 
TABS,ioos:station:wmo:42043:1,2010-07-02T04:30:00Z,28.9818,-94.9186,2.0,22.75,11111222 
TABS,ioos:station:wmo:42043:1,2010-07-02T05:00:00Z,28.9818,-94.9186,2.0,22.58,11111222 
TABS,ioos:station:wmo:42043:1,2010-07-02T05:30:00Z,28.9818,-94.9186,2.0,22.11,11111222 
TABS,ioos:station:wmo:42043:1,2010-07-02T06:00:00Z,28.9818,-94.9186,2.0,21.89,11111222 
TABS,ioos:station:wmo:42043:1,2010-07-02T06:30:00Z,28.9818,-94.9186,2.0,22.16,11111222 
TABS,ioos:station:wmo:42043:1,2010-07-02T07:00:00Z,28.9818,-94.9186,2.0,22.39,11111222 
TABS,ioos:station:wmo:42043:1,2010-07-02T07:30:00Z,28.9818,-94.9186,2.0,22.63,11111222 
TABS,ioos:station:wmo:42043:1,2010-07-02T08:00:00Z,28.9818,-94.9186,2.0,22.87,11111222 
TABS,ioos:station:wmo:42043:1,2010-07-02T08:30:00Z,28.9818,-94.9186,2.0,22.97,11111222 
TABS,ioos:station:wmo:42043:1,2010-07-02T09:00:00Z,28.9818,-94.9186,2.0,23.06,11111222 
TABS,ioos:station:wmo:42043:1,2010-07-02T09:30:00Z,28.9818,-94.9186,2.0,22.81,11111222 
TABS,ioos:station:wmo:42043:1,2010-07-02T10:00:00Z,28.9818,-94.9186,2.0,23.0,11111222 
TABS,ioos:station:wmo:42043:1,2010-07-02T10:30:00Z,28.9818,-94.9186,2.0,22.69,11111222 
TABS,ioos:station:wmo:42043:1,2010-07-02T11:00:00Z,28.9818,-94.9186,2.0,22.55,11111222 
TABS,ioos:station:wmo:42043:1,2010-07-02T11:30:00Z,28.9818,-94.9186,2.0,22.23,11111222 
TABS,ioos:station:wmo:42043:1,2010-07-02T12:00:00Z,28.9818,-94.9186,2.0,23.83,11111222 
TABS,ioos:station:wmo:42043:1,2010-07-02T12:30:00Z,28.9818,-94.9186,2.0,23.84,11111222 
TABS,ioos:station:wmo:42043:1,2010-07-02T13:00:00Z,28.9818,-94.9186,2.0,23.6,11111222 
TABS,ioos:station:wmo:42043:1,2010-07-02T13:30:00Z,28.9818,-94.9186,2.0,23.75,11111222 
TABS,ioos:station:wmo:42043:1,2010-07-02T14:00:00Z,28.9818,-94.9186,2.0,23.44,11111222 
TABS,ioos:station:wmo:42043:1,2010-07-02T14:30:00Z,28.9818,-94.9186,2.0,22.75,11111222 
TABS,ioos:station:wmo:42043:1,2010-07-02T15:00:00Z,28.9818,-94.9186,2.0,22.74,11111222 
TABS,ioos:station:wmo:42043:1,2010-07-02T15:30:00Z,28.9818,-94.9186,2.0,22.52,11111222 
TABS,ioos:station:wmo:42043:1,2010-07-02T16:00:00Z,28.9818,-94.9186,2.0,22.51,11111222 
TABS,ioos:station:wmo:42043:1,2010-07-02T16:30:00Z,28.9818,-94.9186,2.0,22.34,11111222 
TABS,ioos:station:wmo:42043:1,2010-07-02T17:00:00Z,28.9818,-94.9186,2.0,22.02,11111222 
TABS,ioos:station:wmo:42043:1,2010-07-02T17:30:00Z,28.9818,-94.9186,2.0,22.03,11111222 
TABS,ioos:station:wmo:42043:1,2010-07-02T18:00:00Z,28.9818,-94.9186,2.0,21.88,11111222 
TABS,ioos:station:wmo:42043:1,2010-07-02T18:30:00Z,28.9818,-94.9186,2.0,21.81,11111222 
TABS,ioos:station:wmo:42043:1,2010-07-02T19:00:00Z,28.9818,-94.9186,2.0,21.8,11111222 
TABS,ioos:station:wmo:42043:1,2010-07-02T19:30:00Z,28.9818,-94.9186,2.0,21.49,11111222 
TABS,ioos:station:wmo:42043:1,2010-07-02T20:00:00Z,28.9818,-94.9186,2.0,21.43,11111222 
TABS,ioos:station:wmo:42043:1,2010-07-02T20:30:00Z,28.9818,-94.9186,2.0,21.24,11111222 
TABS,ioos:station:wmo:42043:1,2010-07-02T21:00:00Z,28.9818,-94.9186,2.0,21.11,11111222 
TABS,ioos:station:wmo:42043:1,2010-07-02T21:30:00Z,28.9818,-94.9186,2.0,21.08,11111222 
TABS,ioos:station:wmo:42043:1,2010-07-02T22:00:00Z,28.9818,-94.9186,2.0,20.93,11111222 
TABS,ioos:station:wmo:42043:1,2010-07-02T22:30:00Z,28.9818,-94.9186,2.0,21.07,11111222 
TABS,ioos:station:wmo:42043:1,2010-07-02T23:00:00Z,28.9818,-94.9186,2.0,21.09,11111222 
TABS,ioos:station:wmo:42043:1,2010-07-02T23:30:00Z,28.9818,-94.9186,2.0,20.91,11111222 
TABS,ioos:station:wmo:42043:1,2010-07-03T00:00:00Z,28.9818,-94.9186,2.0,20.84,11111222 
TABS,ioos:station:wmo:42043:1,2010-07-03T00:30:00Z,28.9818,-94.9186,2.0,20.92,11111222 
TABS,ioos:station:wmo:42043:1,2010-07-03T01:00:00Z,28.9818,-94.9186,2.0,20.87,11111222 
TABS,ioos:station:wmo:42043:1,2010-07-03T01:30:00Z,28.9818,-94.9186,2.0,21.18,11111222 
TABS,ioos:station:wmo:42043:1,2010-07-03T02:00:00Z,28.9818,-94.9186,2.0,20.79,11111222 
TABS,ioos:station:wmo:42043:1,2010-07-03T02:30:00Z,28.9818,-94.9186,2.0,20.54,11111222 
TABS,ioos:station:wmo:42043:1,2010-07-03T03:00:00Z,28.9818,-94.9186,2.0,20.27,11111222 
TABS,ioos:station:wmo:42043:1,2010-07-03T03:30:00Z,28.9818,-94.9186,2.0,20.2,11111222 
TABS,ioos:station:wmo:42043:1,2010-07-03T04:00:00Z,28.9818,-94.9186,2.0,19.98,11111222 
TABS,ioos:station:wmo:42043:1,2010-07-03T04:30:00Z,28.9818,-94.9186,2.0,20.02,11111222 
TABS,ioos:station:wmo:42043:1,2010-07-03T05:00:00Z,28.9818,-94.9186,2.0,20.45,11111222 
TABS,ioos:station:wmo:42043:1,2010-07-03T05:30:00Z,28.9818,-94.9186,2.0,20.14,11111222 
TABS,ioos:station:wmo:42043:1,2010-07-03T06:00:00Z,28.9818,-94.9186,2.0,20.26,11111222 
TABS,ioos:station:wmo:42043:1,2010-07-03T06:30:00Z,28.9818,-94.9186,2.0,20.15,11111222 
TABS,ioos:station:wmo:42043:1,2010-07-03T07:00:00Z,28.9818,-94.9186,2.0,20.19,11111222 
TABS,ioos:station:wmo:42043:1,2010-07-03T07:30:00Z,28.9818,-94.9186,2.0,20.18,11111222 
TABS,ioos:station:wmo:42043:1,2010-07-03T08:00:00Z,28.9818,-94.9186,2.0,20.21,11111222 
TABS,ioos:station:wmo:42043:1,2010-07-03T08:30:00Z,28.9818,-94.9186,2.0,20.45,11111222 
TABS,ioos:station:wmo:42043:1,2010-07-03T09:00:00Z,28.9818,-94.9186,2.0,20.26,11111222 
TABS,ioos:station:wmo:42043:1,2010-07-03T09:30:00Z,28.9818,-94.9186,2.0,20.64,11111222 
TABS,ioos:station:wmo:42043:1,2010-07-03T10:00:00Z,28.9818,-94.9186,2.0,20.51,11111222 
TABS,ioos:station:wmo:42043:1,2010-07-03T10:30:00Z,28.9818,-94.9186,2.0,20.95,11111222 
TABS,ioos:station:wmo:42043:1,2010-07-03T11:00:00Z,28.9818,-94.9186,2.0,20.93,11111222 
TABS,ioos:station:wmo:42043:1,2010-07-03T11:30:00Z,28.9818,-94.9186,2.0,21.18,11111222 
TABS,ioos:station:wmo:42043:1,2010-07-03T12:00:00Z,28.9818,-94.9186,2.0,20.92,11111222 
TABS,ioos:station:wmo:42043:1,2010-07-03T12:30:00Z,28.9818,-94.9186,2.0,21.13,11111222 
TABS,ioos:station:wmo:42043:1,2010-07-03T13:00:00Z,28.9818,-94.9186,2.0,21.29,11111222 
TABS,ioos:station:wmo:42043:1,2010-07-03T13:30:00Z,28.9818,-94.9186,2.0,21.24,11111222 
TABS,ioos:station:wmo:42043:1,2010-07-03T14:00:00Z,28.9818,-94.9186,2.0,21.0,11111222 
TABS,ioos:station:wmo:42043:1,2010-07-03T14:30:00Z,28.9818,-94.9186,2.0,21.16,11111222 
TABS,ioos:station:wmo:42043:1,2010-07-03T15:00:00Z,28.9818,-94.9186,2.0,21.17,11111222 
TABS,ioos:station:wmo:42043:1,2010-07-03T15:30:00Z,28.9818,-94.9186,2.0,21.3,11111222 
TABS,ioos:station:wmo:42043:1,2010-07-03T16:00:00Z,28.9818,-94.9186,2.0,21.06,11111222 
TABS,ioos:station:wmo:42043:1,2010-07-03T16:30:00Z,28.9818,-94.9186,2.0,21.29,11111222 
TABS,ioos:station:wmo:42043:1,2010-07-03T17:00:00Z,28.9818,-94.9186,2.0,20.84,11111222 
TABS,ioos:station:wmo:42043:1,2010-07-03T17:30:00Z,28.9818,-94.9186,2.0,20.48,11111222 
TABS,ioos:station:wmo:42043:1,2010-07-03T18:00:00Z,28.9818,-94.9186,2.0,20.41,11111222 
TABS,ioos:station:wmo:42043:1,2010-07-03T18:30:00Z,28.9818,-94.9186,2.0,20.45,11111222 
TABS,ioos:station:wmo:42043:1,2010-07-03T19:00:00Z,28.9818,-94.9186,2.0,20.4,11111222 
TABS,ioos:station:wmo:42043:1,2010-07-03T19:30:00Z,28.9818,-94.9186,2.0,20.24,11111222 
TABS,ioos:station:wmo:42043:1,2010-07-03T20:00:00Z,28.9818,-94.9186,2.0,19.82,11111222 
TABS,ioos:station:wmo:42043:1,2010-07-03T20:30:00Z,28.9818,-94.9186,2.0,19.64,11111222 
TABS,ioos:station:wmo:42043:1,2010-07-03T21:00:00Z,28.9818,-94.9186,2.0,19.31,11111222 
TABS,ioos:station:wmo:42043:1,2010-07-03T21:30:00Z,28.9818,-94.9186,2.0,19.16,11111222 
TABS,ioos:station:wmo:42043:1,2010-07-03T22:00:00Z,28.9818,-94.9186,2.0,19.09,11111222 
TABS,ioos:station:wmo:42043:1,2010-07-03T22:30:00Z,28.9818,-94.9186,2.0,19.37,11111222 
TABS,ioos:station:wmo:42043:1,2010-07-03T23:00:00Z,28.9818,-94.9186,2.0,19.19,11111222 
TABS,ioos:station:wmo:42043:1,2010-07-03T23:30:00Z,28.9818,-94.9186,2.0,19.13,11111222 
TABS,ioos:station:wmo:42043:1,2010-07-04T00:00:00Z,28.9818,-94.9186,2.0,19.04,11111222 
TABS,ioos:station:wmo:42043:1,2010-07-04T00:30:00Z,28.9818,-94.9186,2.0,18.99,11111222 
TABS,ioos:station:wmo:42043:1,2010-07-04T01:00:00Z,28.9818,-94.9186,2.0,19.01,11111222 
TABS,ioos:station:wmo:42043:1,2010-07-04T01:30:00Z,28.9818,-94.9186,2.0,19.08,11111222 
TABS,ioos:station:wmo:42043:1,2010-07-04T02:00:00Z,28.9818,-94.9186,2.0,19.07,11111222 
TABS,ioos:station:wmo:42043:1,2010-07-04T03:00:00Z,28.9818,-94.9186,2.0,18.9,11111222 
TABS,ioos:station:wmo:42043:1,2010-07-04T03:30:00Z,28.9818,-94.9186,2.0,18.85,11111222 
TABS,ioos:station:wmo:42043:1,2010-07-04T04:00:00Z,28.9818,-94.9186,2.0,18.74,11111222 
TABS,ioos:station:wmo:42043:1,2010-07-04T04:30:00Z,28.9818,-94.9186,2.0,18.83,11111222 
TABS,ioos:station:wmo:42043:1,2010-07-04T05:00:00Z,28.9818,-94.9186,2.0,18.85,11111222 
TABS,ioos:station:wmo:42043:1,2010-07-04T05:30:00Z,28.9818,-94.9186,2.0,19.15,11111222 
TABS,ioos:station:wmo:42043:1,2010-07-04T06:00:00Z,28.9818,-94.9186,2.0,19.33,11111222 
TABS,ioos:station:wmo:42043:1,2010-07-04T06:30:00Z,28.9818,-94.9186,2.0,19.87,11111222 
TABS,ioos:station:wmo:42043:1,2010-07-04T07:00:00Z,28.9818,-94.9186,2.0,20.38,11111222 
TABS,ioos:station:wmo:42043:1,2010-07-04T07:30:00Z,28.9818,-94.9186,2.0,21.46,11111222 
TABS,ioos:station:wmo:42043:1,2010-07-04T08:00:00Z,28.9818,-94.9186,2.0,21.43,11111222 
TABS,ioos:station:wmo:42043:1,2010-07-04T08:30:00Z,28.9818,-94.9186,2.0,21.47,11111222 
TABS,ioos:station:wmo:42043:1,2010-07-04T09:00:00Z,28.9818,-94.9186,2.0,21.68,11111222 
TABS,ioos:station:wmo:42043:1,2010-07-04T09:30:00Z,28.9818,-94.9186,2.0,21.75,11111222 
TABS,ioos:station:wmo:42043:1,2010-07-04T10:00:00Z,28.9818,-94.9186,2.0,21.79,11111222 
TABS,ioos:station:wmo:42043:1,2010-07-04T10:30:00Z,28.9818,-94.9186,2.0,21.57,11111222 
TABS,ioos:station:wmo:42043:1,2010-07-04T11:00:00Z,28.9818,-94.9186,2.0,21.55,11111222 
TABS,ioos:station:wmo:42043:1,2010-07-04T11:30:00Z,28.9818,-94.9186,2.0,21.47,11111222 
TABS,ioos:station:wmo:42043:1,2010-07-04T12:00:00Z,28.9818,-94.9186,2.0,20.98,11111222 
TABS,ioos:station:wmo:42043:1,2010-07-04T12:30:00Z,28.9818,-94.9186,2.0,21.09,11111222 
TABS,ioos:station:wmo:42043:1,2010-07-04T13:00:00Z,28.9818,-94.9186,2.0,20.79,11111222 
TABS,ioos:station:wmo:42043:1,2010-07-04T13:30:00Z,28.9818,-94.9186,2.0,20.31,11111222 
TABS,ioos:station:wmo:42043:1,2010-07-04T14:00:00Z,28.9818,-94.9186,2.0,19.96,11111222 
TABS,ioos:station:wmo:42043:1,2010-07-04T14:30:00Z,28.9818,-94.9186,2.0,19.73,11111222 
TABS,ioos:station:wmo:42043:1,2010-07-04T15:00:00Z,28.9818,-94.9186,2.0,19.64,11111222 
TABS,ioos:station:wmo:42043:1,2010-07-04T15:30:00Z,28.9818,-94.9186,2.0,19.46,11111222 
TABS,ioos:station:wmo:42043:1,2010-07-04T16:00:00Z,28.9818,-94.9186,2.0,19.35,11111222 
TABS,ioos:station:wmo:42043:1,2010-07-04T16:30:00Z,28.9818,-94.9186,2.0,19.32,11111222 
TABS,ioos:station:wmo:42043:1,2010-07-04T17:00:00Z,28.9818,-94.9186,2.0,19.39,11111222 
TABS,ioos:station:wmo:42043:1,2010-07-04T17:30:00Z,28.9818,-94.9186,2.0,19.42,11111222 
TABS,ioos:station:wmo:42043:1,2010-07-04T18:00:00Z,28.9818,-94.9186,2.0,19.38,11111222 
TABS,ioos:station:wmo:42043:1,2010-07-04T18:30:00Z,28.9818,-94.9186,2.0,19.58,11111222 
TABS,ioos:station:wmo:42043:1,2010-07-04T19:00:00Z,28.9818,-94.9186,2.0,18.82,11111222 
TABS,ioos:station:wmo:42043:1,2010-07-04T19:30:00Z,28.9818,-94.9186,2.0,18.27,11111222 
TABS,ioos:station:wmo:42043:1,2010-07-04T20:00:00Z,28.9818,-94.9186,2.0,18.1,11111222 
TABS,ioos:station:wmo:42043:1,2010-07-04T20:30:00Z,28.9818,-94.9186,2.0,18.05,11111222 
TABS,ioos:station:wmo:42043:1,2010-07-04T21:00:00Z,28.9818,-94.9186,2.0,18.05,11111222 
TABS,ioos:station:wmo:42043:1,2010-07-04T21:30:00Z,28.9818,-94.9186,2.0,17.89,11111222 
TABS,ioos:station:wmo:42043:1,2010-07-04T22:00:00Z,28.9818,-94.9186,2.0,17.74,11111222 
TABS,ioos:station:wmo:42043:1,2010-07-04T22:30:00Z,28.9818,-94.9186,2.0,17.75,11111222 
TABS,ioos:station:wmo:42043:1,2010-07-04T23:00:00Z,28.9818,-94.9186,2.0,17.16,11111222 
TABS,ioos:station:wmo:42043:1,2010-07-04T23:30:00Z,28.9818,-94.9186,2.0,16.05,11111222 
TABS,ioos:station:wmo:42043:1,2010-07-05T00:00:00Z,28.9818,-94.9186,2.0,15.87,11111222 
TABS,ioos:station:wmo:42043:1,2010-07-05T00:30:00Z,28.9818,-94.9186,2.0,15.79,11111222 
TABS,ioos:station:wmo:42043:1,2010-07-05T01:00:00Z,28.9818,-94.9186,2.0,15.54,11111222 
TABS,ioos:station:wmo:42043:1,2010-07-05T01:30:00Z,28.9818,-94.9186,2.0,15.54,11111222 
TABS,ioos:station:wmo:42043:1,2010-07-05T02:00:00Z,28.9818,-94.9186,2.0,15.42,11111222 
TABS,ioos:station:wmo:42043:1,2010-07-05T02:30:00Z,28.9818,-94.9186,2.0,15.37,11111222 
TABS,ioos:station:wmo:42043:1,2010-07-05T03:00:00Z,28.9818,-94.9186,2.0,15.1,11111222 
TABS,ioos:station:wmo:42043:1,2010-07-05T03:30:00Z,28.9818,-94.9186,2.0,14.98,11111222 
TABS,ioos:station:wmo:42043:1,2010-07-05T04:00:00Z,28.9818,-94.9186,2.0,14.93,11111222 
TABS,ioos:station:wmo:42043:1,2010-07-05T04:30:00Z,28.9818,-94.9186,2.0,14.7,11111222 
TABS,ioos:station:wmo:42043:1,2010-07-05T05:00:00Z,28.9818,-94.9186,2.0,14.52,11111222 
TABS,ioos:station:wmo:42043:1,2010-07-05T05:30:00Z,28.9818,-94.9186,2.0,14.43,11111222 
TABS,ioos:station:wmo:42043:1,2010-07-05T06:00:00Z,28.9818,-94.9186,2.0,14.3,11111222 
TABS,ioos:station:wmo:42043:1,2010-07-05T06:30:00Z,28.9818,-94.9186,2.0,14.26,11111222 
TABS,ioos:station:wmo:42043:1,2010-07-05T07:00:00Z,28.9818,-94.9186,2.0,14.26,11111222 
TABS,ioos:station:wmo:42043:1,2010-07-05T07:30:00Z,28.9818,-94.9186,2.0,14.25,11111222 
TABS,ioos:station:wmo:42043:1,2010-07-05T08:00:00Z,28.9818,-94.9186,2.0,14.4,11111222 
TABS,ioos:station:wmo:42043:1,2010-07-05T08:30:00Z,28.9818,-94.9186,2.0,15.54,11111222 
TABS,ioos:station:wmo:42043:1,2010-07-05T09:00:00Z,28.9818,-94.9186,2.0,17.86,11111222 
TABS,ioos:station:wmo:42043:1,2010-07-05T09:30:00Z,28.9818,-94.9186,2.0,15.91,11111222 
TABS,ioos:station:wmo:42043:1,2010-07-05T10:00:00Z,28.9818,-94.9186,2.0,18.16,11111222 
TABS,ioos:station:wmo:42043:1,2010-07-05T10:30:00Z,28.9818,-94.9186,2.0,19.56,11111222 
TABS,ioos:station:wmo:42043:1,2010-07-05T11:00:00Z,28.9818,-94.9186,2.0,19.5,11111222 
TABS,ioos:station:wmo:42043:1,2010-07-05T11:30:00Z,28.9818,-94.9186,2.0,19.59,11111222 
TABS,ioos:station:wmo:42043:1,2010-07-05T12:00:00Z,28.9818,-94.9186,2.0,15.94,11111222 
TABS,ioos:station:wmo:42043:1,2010-07-05T12:30:00Z,28.9818,-94.9186,2.0,16.23,11111222 
TABS,ioos:station:wmo:42043:1,2010-07-05T13:00:00Z,28.9818,-94.9186,2.0,18.64,11111222 
TABS,ioos:station:wmo:42043:1,2010-07-05T13:30:00Z,28.9818,-94.9186,2.0,16.7,11111222 
TABS,ioos:station:wmo:42043:1,2010-07-05T14:00:00Z,28.9818,-94.9186,2.0,16.47,11111222 
TABS,ioos:station:wmo:42043:1,2010-07-05T14:30:00Z,28.9818,-94.9186,2.0,20.06,11111222 
TABS,ioos:station:wmo:42043:1,2010-07-05T15:00:00Z,28.9818,-94.9186,2.0,19.98,11111222 
TABS,ioos:station:wmo:42043:1,2010-07-05T15:30:00Z,28.9818,-94.9186,2.0,20.16,11111222 
TABS,ioos:station:wmo:42043:1,2010-07-05T16:00:00Z,28.9818,-94.9186,2.0,20.49,11111222 
TABS,ioos:station:wmo:42043:1,2010-07-05T16:30:00Z,28.9818,-94.9186,2.0,20.2,11111222 
TABS,ioos:station:wmo:42043:1,2010-07-05T17:00:00Z,28.9818,-94.9186,2.0,20.25,11111222 
TABS,ioos:station:wmo:42043:1,2010-07-05T17:30:00Z,28.9818,-94.9186,2.0,19.93,11111222 
TABS,ioos:station:wmo:42043:1,2010-07-05T18:00:00Z,28.9818,-94.9186,2.0,19.96,11111222 
TABS,ioos:station:wmo:42043:1,2010-07-05T18:30:00Z,28.9818,-94.9186,2.0,19.91,11111222 
TABS,ioos:station:wmo:42043:1,2010-07-05T19:00:00Z,28.9818,-94.9186,2.0,18.94,11111222 
TABS,ioos:station:wmo:42043:1,2010-07-05T19:30:00Z,28.9818,-94.9186,2.0,17.64,11111222 
TABS,ioos:station:wmo:42043:1,2010-07-05T20:00:00Z,28.9818,-94.9186,2.0,15.62,11111222 
TABS,ioos:station:wmo:42043:1,2010-07-05T20:30:00Z,28.9818,-94.9186,2.0,15.53,11111222 
TABS,ioos:station:wmo:42043:1,2010-07-05T21:00:00Z,28.9818,-94.9186,2.0,14.79,11111222 
TABS,ioos:station:wmo:42043:1,2010-07-05T21:30:00Z,28.9818,-94.9186,2.0,14.74,11111222 
TABS,ioos:station:wmo:42043:1,2010-07-05T22:00:00Z,28.9818,-94.9186,2.0,14.89,11111222 
TABS,ioos:station:wmo:42043:1,2010-07-05T22:30:00Z,28.9818,-94.9186,2.0,14.77,11111222 
TABS,ioos:station:wmo:42043:1,2010-07-05T23:00:00Z,28.9818,-94.9186,2.0,15.1,11111222 
TABS,ioos:station:wmo:42043:1,2010-07-05T23:30:00Z,28.9818,-94.9186,2.0,14.85,11111222 
TABS,ioos:station:wmo:42043:1,2010-07-06T00:00:00Z,28.9818,-94.9186,2.0,14.16,11111222 
TABS,ioos:station:wmo:42043:1,2010-07-06T00:30:00Z,28.9818,-94.9186,2.0,14.09,11111222 
TABS,ioos:station:wmo:42043:1,2010-07-06T01:00:00Z,28.9818,-94.9186,2.0,13.94,11111222 
TABS,ioos:station:wmo:42043:1,2010-07-06T01:30:00Z,28.9818,-94.9186,2.0,14.92,11111222 
TABS,ioos:station:wmo:42043:1,2010-07-06T02:00:00Z,28.9818,-94.9186,2.0,14.46,11111222 
TABS,ioos:station:wmo:42043:1,2010-07-06T02:30:00Z,28.9818,-94.9186,2.0,14.55,11111222 
TABS,ioos:station:wmo:42043:1,2010-07-06T03:00:00Z,28.9818,-94.9186,2.0,15.16,11111222 
TABS,ioos:station:wmo:42043:1,2010-07-06T03:30:00Z,28.9818,-94.9186,2.0,16.54,11111222 
TABS,ioos:station:wmo:42043:1,2010-07-06T04:00:00Z,28.9818,-94.9186,2.0,17.35,11111222 
TABS,ioos:station:wmo:42043:1,2010-07-06T04:30:00Z,28.9818,-94.9186,2.0,18.33,11111222 
TABS,ioos:station:wmo:42043:1,2010-07-06T05:00:00Z,28.9818,-94.9186,2.0,18.78,11111222 
TABS,ioos:station:wmo:42043:1,2010-07-06T05:30:00Z,28.9818,-94.9186,2.0,19.48,11111222 
TABS,ioos:station:wmo:42043:1,2010-07-06T06:00:00Z,28.9818,-94.9186,2.0,20.12,11111222 
TABS,ioos:station:wmo:42043:1,2010-07-06T06:30:00Z,28.9818,-94.9186,2.0,21.75,11111222 
TABS,ioos:station:wmo:42043:1,2010-07-06T07:00:00Z,28.9818,-94.9186,2.0,21.95,11111222 
TABS,ioos:station:wmo:42043:1,2010-07-06T07:30:00Z,28.9818,-94.9186,2.0,22.13,11111222 
TABS,ioos:station:wmo:42043:1,2010-07-06T08:00:00Z,28.9818,-94.9186,2.0,22.17,11111222 
TABS,ioos:station:wmo:42043:1,2010-07-06T08:30:00Z,28.9818,-94.9186,2.0,22.07,11111222 
TABS,ioos:station:wmo:42043:1,2010-07-06T09:00:00Z,28.9818,-94.9186,2.0,20.87,11111222 
TABS,ioos:station:wmo:42043:1,2010-07-06T09:30:00Z,28.9818,-94.9186,2.0,21.0,11111222 
TABS,ioos:station:wmo:42043:1,2010-07-06T10:00:00Z,28.9818,-94.9186,2.0,20.99,11111222 
TABS,ioos:station:wmo:42043:1,2010-07-06T10:30:00Z,28.9818,-94.9186,2.0,20.35,11111222 
TABS,ioos:station:wmo:42043:1,2010-07-06T11:00:00Z,28.9818,-94.9186,2.0,20.04,11111222 
TABS,ioos:station:wmo:42043:1,2010-07-06T11:30:00Z,28.9818,-94.9186,2.0,19.75,11111222 
TABS,ioos:station:wmo:42043:1,2010-07-06T12:00:00Z,28.9818,-94.9186,2.0,19.66,11111222 
TABS,ioos:station:wmo:42043:1,2010-07-06T12:30:00Z,28.9818,-94.9186,2.0,19.01,11111222 
TABS,ioos:station:wmo:42043:1,2010-07-06T13:00:00Z,28.9818,-94.9186,2.0,19.29,11111222 
TABS,ioos:station:wmo:42043:1,2010-07-06T13:30:00Z,28.9818,-94.9186,2.0,19.27,11111222 
TABS,ioos:station:wmo:42043:1,2010-07-06T14:00:00Z,28.9818,-94.9186,2.0,19.35,11111222 
TABS,ioos:station:wmo:42043:1,2010-07-06T14:30:00Z,28.9818,-94.9186,2.0,19.8,11111222 
TABS,ioos:station:wmo:42043:1,2010-07-06T15:00:00Z,28.9818,-94.9186,2.0,19.81,11111222 
TABS,ioos:station:wmo:42043:1,2010-07-06T15:30:00Z,28.9818,-94.9186,2.0,19.77,11111222 
TABS,ioos:station:wmo:42043:1,2010-07-06T16:00:00Z,28.9818,-94.9186,2.0,19.51,11111222 